EW2896 Weather Reports


Display with metric or nautical units.
time (UTC)temp
F
wind
direction
speed
MPH
gust
MPH
rain 1hr
in
rain 24hr
in
rain mn
in
humidity
%
barometer
mb
20260502151605 46 344 2.0 5.0 0.00 0.11 0.00 66 1019.3
20260502150605 46 237 1.0 5.0 0.00 0.12 0.00 67 1019.3
20260502150105 46 20 1.0 8.0 0.00 0.12 0.00 65 1019.3
20260502140105 44 268 2.0 5.0 0.00 0.15 0.00 66 1019.0
20260502130605 41 313 0.0 3.0 0.00 0.16 0.00 77 1019.1
20260502130105 40 224 1.0 3.0 0.00 0.16 0.00 77 1019.1
20260502123605 38 26 0.0 2.0 0.00 0.16 0.00 81 1019.0
20260502123105 38 28 0.0 2.0 0.00 0.16 0.00 81 1019.0
20260502122606 37 29 0.0 2.0 0.00 0.16 0.00 81 1019.0
20260502122105 37 28 0.0 0.0 0.00 0.16 0.00 82 1018.9
20260502121605 37 28 0.0 1.0 0.00 0.16 0.00 83 1018.8
20260502121105 36 29 0.0 2.0 0.00 0.16 0.00 84 1018.9
20260502120605 36 29 1.0 3.0 0.00 0.16 0.00 84 1018.9
20260502120105 35 20 1.0 2.0 0.00 0.16 0.00 86 1018.9
20260502115605 35 19 0.0 3.0 0.00 0.16 0.00 87 1018.9
20260502115105 34 22 0.0 3.0 0.00 0.16 0.00 88 1018.8
20260502114605 34 22 0.0 2.0 0.00 0.16 0.00 89 1018.8
20260502114105 34 26 0.0 2.0 0.00 0.16 0.00 90 1018.8
20260502113605 34 26 0.0 3.0 0.00 0.16 0.00 90 1018.9
20260502113106 33 10 0.0 0.0 0.00 0.16 0.00 90 1018.9
20260502112106 33 10 0.0 0.0 0.00 0.16 0.00 90 1019.0
20260502111605 33 10 0.0 0.0 0.00 0.16 0.00 90 1018.9
20260502110605 33 10 0.0 0.0 0.00 0.16 0.00 90 1018.9
20260502110105 33 10 0.0 0.0 0.00 0.16 0.00 89 1018.7
20260502105606 33 10 0.0 0.0 0.00 0.16 0.00 89 1018.7
20260502104605 33 10 0.0 0.0 0.00 0.16 0.00 89 1018.7
20260502104105 33 10 0.0 0.0 0.00 0.16 0.00 89 1018.7
20260502103605 33 10 0.0 0.0 0.00 0.16 0.00 89 1018.7
20260502103105 33 10 0.0 0.0 0.00 0.16 0.00 89 1018.7
20260502102605 33 10 0.0 0.0 0.00 0.16 0.00 89 1018.6
20260502101605 33 10 0.0 0.0 0.00 0.16 0.00 89 1018.5
20260502100606 33 10 0.0 0.0 0.00 0.16 0.00 88 1018.5
20260502100106 34 10 0.0 0.0 0.00 0.16 0.00 88 1018.5
20260502091106 35 10 0.0 0.0 0.00 0.16 0.00 88 1018.6
20260502090605 35 10 0.0 0.0 0.00 0.16 0.00 88 1018.6
20260502090105 35 10 0.0 0.0 0.00 0.16 0.00 88 1018.5
20260502071106 37 10 0.0 0.0 0.00 0.16 0.00 89 1018.2
20260502070105 38 10 0.0 0.0 0.00 0.16 0.00 89 1018.3
20260502065605 38 10 0.0 0.0 0.00 0.16 0.00 89 1018.5
20260502065105 38 10 0.0 0.0 0.00 0.16 0.00 89 1018.5
20260502064605 38 10 0.0 0.0 0.00 0.16 0.00 89 1018.5
20260502064105 38 10 0.0 0.0 0.00 0.16 0.00 89 1018.5
20260502063605 39 10 0.0 0.0 0.00 0.16 0.00 89 1018.5
20260502063105 39 10 0.0 0.0 0.00 0.16 0.00 89 1018.4
20260502062605 39 10 0.0 0.0 0.00 0.16 0.00 89 1018.5
20260502062105 39 10 0.0 0.0 0.00 0.16 0.00 89 1018.6
20260502061605 39 10 0.0 0.0 0.00 0.16 0.00 89 1018.6
20260502061105 39 10 0.0 0.0 0.00 0.16 0.00 89 1018.7
20260502060605 39 10 0.0 0.0 0.00 0.16 0.00 89 1018.7
20260502060106 40 10 0.0 0.0 0.00 0.16 0.00 89 1018.7
20260502055605 40 10 0.0 0.0 0.00 0.16 0.00 89 1018.8
20260502055106 40 10 0.0 0.0 0.00 0.16 0.00 90 1018.8
20260502054605 40 10 0.0 0.0 0.00 0.16 0.00 90 1018.9
20260502054105 40 10 0.0 0.0 0.00 0.16 0.00 90 1018.9
20260502053605 40 10 0.0 0.0 0.00 0.16 0.00 89 1018.8
20260502053105 39 10 0.0 0.0 0.00 0.16 0.00 89 1018.8
20260502052605 39 10 0.0 0.0 0.00 0.16 0.00 89 1018.8
20260502052105 39 10 0.0 0.0 0.00 0.16 0.00 89 1018.8
20260502051605 39 10 0.0 0.0 0.00 0.16 0.00 89 1018.8
20260502051105 39 10 0.0 0.0 0.00 0.16 0.00 89 1018.9
20260502050605 39 10 0.0 0.0 0.00 0.16 0.00 89 1018.9
20260502050106 39 10 0.0 0.0 0.00 0.16 0.00 88 1018.9
20260502045605 39 10 0.0 0.0 0.00 0.16 0.00 88 1018.9
20260502045105 39 10 0.0 0.0 0.00 0.16 0.00 88 1018.8
20260502044605 40 10 0.0 0.0 0.00 0.16 0.00 87 1018.8
20260502044105 40 10 0.0 0.0 0.00 0.16 0.00 87 1018.8
20260502043605 40 10 0.0 0.0 0.00 0.16 0.00 87 1018.8
20260502043106 40 10 0.0 0.0 0.00 0.16 0.00 87 1018.8
20260502042105 41 10 0.0 0.0 0.00 0.16 0.00 87 1018.9
20260502041105 41 10 0.0 0.0 0.00 0.16 0.00 87 1018.9
20260502040105 42 10 0.0 0.0 0.00 0.16 0.00 86 1018.9
20260502035606 42 10 0.0 0.0 0.00 0.16 0.16 86 1018.9
20260502035105 42 10 0.0 0.0 0.00 0.16 0.16 86 1018.9
20260502034605 42 10 0.0 0.0 0.00 0.16 0.16 86 1018.9
20260502034105 43 10 0.0 0.0 0.00 0.16 0.16 85 1018.9
20260502033605 43 10 0.0 0.0 0.00 0.16 0.16 85 1018.9
20260502033105 43 10 0.0 0.0 0.00 0.16 0.16 85 1018.9
20260502032605 43 10 0.0 0.0 0.00 0.16 0.16 85 1019.0
20260502032105 43 10 0.0 0.0 0.00 0.16 0.16 85 1019.0
20260502031605 44 10 0.0 0.0 0.00 0.16 0.16 85 1018.9
20260502030106 44 10 0.0 0.0 0.00 0.16 0.16 85 1019.0
20260502025605 44 10 0.0 0.0 0.00 0.16 0.16 85 1018.9
20260502025105 44 10 0.0 0.0 0.00 0.16 0.16 85 1018.7
20260502024605 44 10 0.0 0.0 0.00 0.16 0.16 85 1018.8
20260502023605 44 10 0.0 0.0 0.00 0.16 0.16 84 1018.8
20260502023106 44 10 0.0 0.0 0.00 0.16 0.16 84 1018.8
20260502022605 44 10 0.0 0.0 0.00 0.16 0.16 84 1018.7
20260502022105 44 10 0.0 0.0 0.00 0.16 0.16 84 1018.6
20260502021605 44 10 0.0 0.0 0.00 0.16 0.16 84 1018.6
20260502021105 44 10 0.0 0.0 0.00 0.16 0.16 83 1018.5
20260502020604 44 10 0.0 0.0 0.00 0.16 0.16 83 1018.5
20260502020105 44 10 0.0 0.0 0.00 0.16 0.16 83 1018.3
20260502015605 44 10 0.0 0.0 0.00 0.16 0.16 82 1018.4
20260502015105 44 10 0.0 0.0 0.00 0.16 0.16 82 1018.5
20260502014105 45 10 0.0 0.0 0.00 0.16 0.16 82 1018.4
20260502013605 45 10 0.0 0.0 0.00 0.16 0.16 82 1018.2
20260502013105 45 10 0.0 0.0 0.00 0.16 0.16 82 1018.0
20260502012605 45 11 0.0 0.0 0.00 0.16 0.16 82 1018.0
20260502012106 45 5 0.0 0.0 0.00 0.16 0.16 82 1017.8
20260502011605 45 11 0.0 0.0 0.00 0.16 0.16 83 1017.7
20260502011105 45 11 0.0 0.0 0.00 0.16 0.16 83 1017.6
20260502010605 45 11 0.0 0.0 0.00 0.16 0.16 83 1017.5
20260502010105 45 10 0.0 0.0 0.00 0.16 0.16 82 1017.5
20260502005605 45 5 0.0 0.0 0.00 0.16 0.16 82 1017.6
20260502005106 45 5 0.0 0.0 0.00 0.16 0.16 82 1017.6
20260502004605 45 5 0.0 0.0 0.00 0.16 0.16 82 1017.7
20260502004105 45 5 0.0 0.0 0.00 0.16 0.16 82 1017.7
20260502003605 45 5 0.0 0.0 0.00 0.16 0.16 81 1017.8
20260502003106 45 5 0.0 0.0 0.00 0.16 0.16 81 1017.8
20260502002605 45 5 0.0 0.0 0.00 0.16 0.16 81 1017.8
20260502002105 45 5 0.0 0.0 0.00 0.16 0.16 81 1017.7
20260502001605 45 5 0.0 0.0 0.00 0.16 0.16 80 1017.6
20260502001105 45 5 0.0 0.0 0.00 0.16 0.16 80 1017.4
20260502000605 46 5 0.0 0.0 0.00 0.16 0.16 80 1017.3
20260502000105 46 5 0.0 0.0 0.00 0.16 0.16 80 1017.2
20260501235605 46 5 0.0 0.0 0.00 0.16 0.16 80 1017.1
20260501234605 46 18 1.0 2.0 0.00 0.16 0.16 79 1017.0
20260501234105 46 4 0.0 3.0 0.00 0.16 0.16 79 1016.8
20260501233604 46 17 1.0 3.0 0.00 0.16 0.16 79 1016.8
20260501233105 46 275 0.0 2.0 0.00 0.16 0.16 79 1016.8
20260501232105 46 273 0.0 0.0 0.00 0.16 0.16 78 1016.5
20260501231605 46 272 0.0 1.0 0.00 0.16 0.16 77 1016.4
20260501231105 46 316 0.0 3.0 0.00 0.16 0.16 77 1016.5
20260501230605 47 282 1.0 3.0 0.00 0.16 0.16 76 1016.4
20260501230105 47 250 1.0 2.0 0.00 0.16 0.16 76 1016.5
20260501225605 47 242 2.0 5.0 0.00 0.16 0.16 76 1016.4
20260501225105 47 317 0.0 3.0 0.00 0.16 0.16 77 1016.4
20260501224605 47 39 1.0 3.0 0.00 0.16 0.16 77 1016.3
20260501224105 47 40 1.0 5.0 0.00 0.16 0.16 77 1016.3
20260501223605 47 352 0.0 8.0 0.00 0.16 0.16 78 1016.4
20260501223105 47 132 1.0 6.0 0.00 0.16 0.16 77 1016.6
20260501222604 47 273 1.0 3.0 0.00 0.16 0.16 78 1016.6
20260501221604 48 255 1.0 3.0 0.00 0.16 0.16 78 1016.6
20260501221105 48 87 1.0 3.0 0.00 0.16 0.16 77 1016.5
20260501220605 48 349 1.0 3.0 0.00 0.16 0.16 78 1016.6
20260501220105 48 37 1.0 3.0 0.00 0.16 0.16 78 1016.5
20260501215604 48 18 1.0 5.0 0.00 0.16 0.16 77 1016.3
20260501214105 48 32 2.0 5.0 0.00 0.16 0.16 79 1016.1
20260501213105 48 25 1.0 3.0 0.00 0.16 0.16 80 1015.8
20260501212605 48 19 1.0 5.0 0.00 0.16 0.16 79 1015.8
20260501211105 47 339 0.0 3.0 0.01 0.16 0.16 80 1015.5
20260501210605 47 283 2.0 6.0 0.01 0.16 0.16 79 1015.4
20260501210105 47 41 2.0 3.0 0.01 0.16 0.16 79 1015.4
20260501204605 47 298 1.0 5.0 0.01 0.16 0.16 79 1015.3
20260501204105 48 338 2.0 5.0 0.01 0.16 0.16 77 1015.3
20260501203106 48 0 2.0 8.0 0.01 0.16 0.16 78 1015.2
20260501201605 48 134 2.0 6.0 0.00 0.15 0.15 78 1015.1
20260501200606 49 341 1.0 5.0 0.00 0.15 0.15 81 1015.0
20260501200106 49 336 2.0 3.0 0.01 0.15 0.15 80 1014.9
20260501195605 49 34 2.0 5.0 0.01 0.15 0.15 80 1014.8
20260501195105 49 273 1.0 6.0 0.01 0.15 0.15 81 1014.7
20260501194605 49 266 2.0 7.0 0.01 0.15 0.15 81 1014.6
20260501194105 50 15 3.0 9.0 0.01 0.15 0.15 80 1014.5
20260501193605 50 319 2.0 9.0 0.01 0.15 0.15 82 1014.4
20260501193106 50 336 3.0 9.0 0.01 0.15 0.15 82 1014.3
20260501192605 50 283 3.0 6.0 0.01 0.15 0.15 83 1014.3
20260501192105 50 287 3.0 9.0 0.01 0.15 0.15 84 1014.1
20260501191605 50 199 2.0 8.0 0.01 0.15 0.15 86 1013.9
20260501191105 50 247 2.0 3.0 0.01 0.15 0.15 87 1013.8
20260501190605 50 50 1.0 7.0 0.01 0.15 0.15 86 1013.7
20260501190105 50 9 2.0 3.0 0.00 0.14 0.14 87 1013.5
20260501185605 50 204 1.0 5.0 0.00 0.14 0.14 89 1013.6
20260501185105 49 210 1.0 3.0 0.00 0.14 0.14 91 1013.7
20260501184105 48 193 0.0 3.0 0.00 0.14 0.14 89 1013.8
20260501183605 48 160 2.0 3.0 0.00 0.14 0.14 89 1013.8
20260501183104 48 25 0.0 2.0 0.01 0.14 0.14 89 1013.8
20260501182605 48 202 1.0 3.0 0.01 0.14 0.14 89 1013.8
20260501182106 48 207 0.0 3.0 0.01 0.14 0.14 89 1013.8
20260501181605 48 221 1.0 3.0 0.01 0.14 0.14 89 1013.7
20260501181105 48 81 0.0 5.0 0.01 0.14 0.14 89 1013.7
20260501180605 48 10 1.0 6.0 0.01 0.14 0.14 89 1013.6
20260501180104 48 18 2.0 5.0 0.01 0.14 0.14 90 1013.8
20260501175605 48 83 1.0 3.0 0.01 0.14 0.14 90 1013.7
20260501175105 48 278 2.0 5.0 0.01 0.14 0.14 90 1013.6
20260501174605 48 67 1.0 3.0 0.01 0.14 0.14 90 1013.7
20260501174105 47 243 1.0 2.0 0.01 0.14 0.14 91 1013.7
20260501173605 47 246 1.0 3.0 0.02 0.14 0.14 91 1013.6
20260501173105 47 253 0.0 2.0 0.01 0.13 0.13 91 1013.6
20260501172605 47 243 0.0 2.0 0.02 0.13 0.13 91 1013.6
20260501172105 47 208 0.0 3.0 0.02 0.13 0.13 91 1013.6
20260501171105 47 212 1.0 3.0 0.04 0.13 0.13 91 1013.7
20260501170605 47 213 1.0 3.0 0.04 0.13 0.13 91 1013.6
20260501170105 47 213 1.0 3.0 0.04 0.13 0.13 91 1013.7
20260501165605 46 213 0.0 2.0 0.04 0.13 0.13 91 1013.8
20260501165105 46 213 2.0 5.0 0.05 0.13 0.13 91 1013.8
20260501164605 47 256 0.0 2.0 0.05 0.13 0.13 91 1013.9
20260501162105 46 270 0.0 0.0 0.05 0.11 0.11 91 1014.1
20260501161605 46 270 0.0 0.0 0.05 0.10 0.10 90 1014.2
20260501161105 46 270 0.0 0.0 0.05 0.09 0.09 90 1014.2
20260501160605 46 270 0.0 0.0 0.05 0.09 0.09 90 1014.3
20260501160105 46 270 0.0 0.0 0.05 0.09 0.09 90 1014.1
20260501155604 46 270 0.0 0.0 0.06 0.09 0.09 90 1014.0